Weather observations for the past three days for
Enid, Enid Woodring Regional Airport
Imperial (Metric)
Date Time (cdt) Wind (mph) Vis. (mi.) Weather Sky Cond. Temperature (ºF) Relative Humidity Wind Chill (°F) Heat Index (°F) Pressure Precipitation (in)
Air Dwpt 6 hour altimeter (in) sea level (mb) 1 hr 3 hr 6 hr
Max. Min.
14 14:45 S 16 G 26 10.00 Clear SKC 100.4 69.8 37% 108 29.98 0.0
14 13:45 S 13 G 26 10.00 Clear SKC 98.6 69.8 39% 106 29.99 0.0
14 12:50 S 17 G 26 10.00 Partly Cloudy SCT150 98.6 68 37% 104 30 0.0
14 11:55 S 16 10.00 Partly Cloudy SCT120 96.8 68 39% 102 30.01 0.0
14 10:50 S 21 G 28 10.00 Partly Cloudy and Breezy SCT120 89.6 68 49% 93 30.01 0.0
14 09:55 S 17 10.00 Mostly Cloudy BKN120 86 69.8 59% 91 30.03 0.0
14 08:50 S 14 G 23 10.00 Mostly Cloudy BKN120 84.2 69.8 62% 88 30.04 0.0
14 07:50 S 15 10.00 Partly Cloudy SCT120 78.8 71.6 79% 82 30.04 0.0
14 06:55 S 13 10.00 Partly Cloudy SCT120 73.4 71.6 94% 30.02 0.0
14 05:55 S 3 10.00 Fair CLR 73.4 69.8 89% 30.04 0.0
14 05:35 S 3 10.00 Fair CLR 73.4 69.8 89% 30.03 0.0
14 05:15 S 6 10.00 Fair CLR 73.4 69.8 89% 30.02 0.0
14 04:55 S 6 10.00 Fair CLR 73.4 69.8 89% 30.02 0.0
14 04:35 S 7 10.00 Fair CLR 71.6 69.8 94% 30.01 0.0
14 04:15 SE 6 10.00 Fair CLR 71.6 69.8 94% 30.01 0.0
14 03:55 SE 6 10.00 Fair CLR 71.6 69.8 94% 30.02 0.0
14 03:35 SE 6 10.00 Fair CLR 71.6 69.8 94% 30.02 0.0
14 03:15 SE 6 10.00 Fair CLR 71.6 69.8 94% 30.03 0.0
14 02:55 S 6 10.00 Fair CLR 71.6 69.8 94% 30.03 0.0
14 02:35 S 6 10.00 Fair CLR 73.4 69.8 89% 30.03 0.0
14 02:15 SE 6 10.00 Fair CLR 73.4 69.8 89% 30.04 0.0
14 01:55 SE 6 10.00 Fair CLR 73.4 69.8 89% 30.04 0.0
14 01:35 SE 6 10.00 Fair CLR 73.4 69.8 89% 30.04 0.0
14 01:15 SE 6 10.00 Fair CLR 73.4 69.8 89% 30.04 0.0
14 00:55 S 5 10.00 Fair CLR 73.4 69.8 89% 30.05 0.0
14 00:35 S 6 10.00 Fair CLR 75.2 69.8 83% 75 30.05 0.0
14 00:15 SE 7 10.00 Fair CLR 77 68 74% 79 30.05 0.0
13 23:55 NE 7 10.00 Fair CLR 77 68 74% 79 30.05 0.0
13 23:35 SE 7 10.00 Fair CLR 77 68 74% 79 30.05 0.0
13 23:15 SE 6 10.00 Fair CLR 77 66.2 69% 79 30.05 0.0
13 22:55 SE 6 10.00 Fair CLR 78.8 66.2 65% 81 30.05 0.0
13 22:35 S 7 10.00 Fair CLR 78.8 68 70% 81 30.05 0.0
13 22:15 NE 6 10.00 Fair CLR 78.8 68 70% 81 30.05 0.0
13 21:55 SE 7 10.00 Fair CLR 80.6 68 66% 83 30.04 0.0
13 21:35 S 8 10.00 Fair CLR 82.4 68 62% 85 30.04 0.0
13 21:15 S 8 10.00 Fair CLR 84.2 66.2 55% 87 30.04 0.0
13 20:45 S 13 10.00 Clear SKC 87.8 66.2 49% 90 30.04 0.0
13 19:45 S 21 10.00 Clear and Breezy SKC 91.4 64.4 41% 93 30.04 0.0
13 18:45 S 21 10.00 Clear and Breezy SKC 93.2 64.4 39% 95 30.03 0.0
13 17:45 S 17 10.00 Clear SKC 96.8 64.4 34% 99 30.03 0.0
13 16:45 S 16 G 26 10.00 Clear SKC 96.8 64.4 34% 99 30.05 0.0
13 15:45 S 21 G 30 10.00 Clear and Breezy SKC 96.8 66.2 37% 100 30.06 0.0
13 14:45 S 20 G 25 10.00 Clear SKC 95 66.2 39% 98 30.07 0.0
13 13:45 S 18 G 26 10.00 Partly Cloudy SCT200 96.8 66.2 37% 100 30.08 0.0
13 12:48 S 18 G 28 10.00 Partly Cloudy SCT200 96.8 68 39% 102 30.08 0.0
13 11:51 S 14 10.00 Partly Cloudy FEW120 SCT200 95 68 41% 100 30.1 0.0
13 10:51 S 17 10.00 Partly Cloudy SCT120 89.6 69.8 52% 95 30.09 0.0
13 09:50 S 14 10.00 Partly Cloudy SCT120 86 69.8 59% 91 30.09 0.0
13 08:50 S 8 10.00 Partly Cloudy SCT120 78.8 69.8 74% 81 30.09 0.0
13 07:48 S 8 10.00 Mostly Cloudy BKN120 75.2 69.8 83% 75 30.08 0.0
13 06:50 S 9 10.00 Partly Cloudy SCT120 75.2 68 78% 76 30.06 0.0
13 05:55 S 8 10.00 Fair CLR 73.4 68 83% 30.05 0.0
13 05:35 S 9 10.00 Fair CLR 73.4 68 83% 30.04 0.0
13 05:15 S 10 10.00 Fair CLR 73.4 68 83% 30.04 0.0
13 04:55 S 9 10.00 Fair CLR 73.4 66.2 78% 30.04 0.0
13 04:35 S 7 10.00 Fair CLR 73.4 66.2 78% 30.03 0.0
13 04:15 S 8 10.00 Fair CLR 73.4 66.2 78% 30.02 0.0
13 03:55 S 9 10.00 Fair CLR 73.4 66.2 78% 30.02 0.0
13 03:35 S 8 10.00 Fair CLR 73.4 66.2 78% 30.02 0.0
13 03:15 S 7 10.00 Fair CLR 75.2 66.2 74% 77 30.02 0.0
13 02:55 S 7 10.00 Fair CLR 77 66.2 69% 79 30.02 0.0
13 02:35 S 8 10.00 Fair CLR 77 66.2 69% 79 30.01 0.0
13 02:15 S 8 10.00 Fair CLR 77 66.2 69% 79 30.01 0.0
13 01:55 S 8 10.00 Fair CLR 77 64.4 65% 79 30.01 0.0
13 01:35 S 8 10.00 Fair CLR 78.8 64.4 61% 81 30.02 0.0
13 01:15 S 9 10.00 Fair CLR 78.8 64.4 61% 81 30.02 0.0
13 00:55 S 9 10.00 Fair CLR 78.8 66.2 65% 81 30.02 0.0
13 00:35 S 9 10.00 Fair CLR 78.8 66.2 65% 81 30.02 0.0
13 00:15 S 10 10.00 Fair CLR 78.8 68 70% 81 30.02 0.0
12 23:55 S 9 10.00 Fair CLR 78.8 68 70% 81 30.01 0.0
12 23:35 S 9 10.00 Fair CLR 78.8 68 70% 81 30.01 0.0
12 23:15 S 9 10.00 Fair CLR 80.6 68 66% 83 30.01 0.0
12 22:55 S 8 10.00 Fair CLR 80.6 68 66% 83 30.01 0.0
12 22:35 S 9 10.00 Fair CLR 80.6 68 66% 83 30.01 0.0
12 22:15 S 9 10.00 Fair CLR 82.4 68 62% 85 29.99 0.0
12 21:55 S 10 10.00 Fair CLR 86 64.4 49% 87 29.98 0.0
12 21:35 S 14 10.00 Fair CLR 86 64.4 49% 87 29.98 0.0
12 21:15 S 13 10.00 Fair CLR 87.8 68 52% 91 29.97 0.0
12 20:45 S 14 G 22 10.00 Partly Cloudy SCT120 89.6 68 49% 93 29.97 0.0
12 19:45 S 16 G 22 10.00 Partly Cloudy SCT120 95 64.4 36% 97 29.95 0.0
12 18:45 S 21 G 26 10.00 Partly Cloudy and Breezy SCT120 98.6 62.6 31% 100 29.94 0.0
12 17:50 S 22 G 29 10.00 Partly Cloudy and Breezy SCT120 100.4 62.6 29% 102 29.94 0.0
12 16:50 S 23 G 31 10.00 Clear and Breezy SKC 102.2 62.6 27% 104 29.94 0.0
12 15:48 S 23 G 30 10.00 Partly Cloudy and Breezy SCT200 102.2 62.6 27% 104 29.95 0.0
12 14:50 S 23 G 31 10.00 Partly Cloudy and Breezy SCT200 102.2 62.6 27% 104 29.96 0.0
12 13:48 S 16 G 33 10.00 Partly Cloudy SCT120 SCT200 102.2 62.6 27% 104 29.98 0.0
12 12:46 S 13 G 26 10.00 Partly Cloudy SCT120 SCT200 100.4 60.8 27% 101 30 0.0
12 11:59 S 17 G 25 10.00 Partly Cloudy FEW120 SCT200 98.6 62.6 31% 100 30 0.0
12 10:50 S 17 G 23 10.00 Partly Cloudy SCT120 93.2 64.4 39% 95 30 0.0
12 09:50 S 15 G 22 10.00 A Few Clouds FEW120 89.6 66.2 46% 92 30.01 0.0
12 08:50 SE 6 10.00 Partly Cloudy SCT120 77 69.8 79% 79 29.99 0.0
12 07:50 SE 6 10.00 Partly Cloudy SCT120 77 69.8 79% 79 29.99 0.0
12 06:47 SE 6 10.00 Partly Cloudy SCT120 69.8 68 94% 29.99 0.0
12 05:55 S 6 10.00 Fair CLR 71.6 68 88% 29.98 0.0
12 05:35 S 7 10.00 Fair CLR 71.6 68 88% 29.97 0.0
12 05:15 SE 6 10.00 Fair CLR 71.6 68 88% 29.97 0.0
12 04:55 SE 7 10.00 Fair CLR 71.6 68 88% 29.96 0.0
12 04:35 SE 6 10.00 Fair CLR 71.6 68 88% 29.96 0.0
12 04:15 Calm 10.00 Fair CLR 71.6 68 88% 29.95 0.0
12 03:55 SE 5 10.00 Fair CLR 71.6 68 88% 29.94 0.0
12 03:35 S 3 10.00 Fair CLR 71.6 68 88% 29.94 0.0
12 03:15 S 6 10.00 Fair CLR 71.6 68 88% 29.94 0.0
12 02:55 S 5 10.00 Fair CLR 71.6 68 88% 29.94 0.0
12 02:35 S 6 10.00 Fair CLR 71.6 68 88% 29.95 0.0
12 02:15 SE 6 10.00 Fair CLR 71.6 68 88% 29.95 0.0
12 01:55 S 7 10.00 Fair CLR 71.6 68 88% 29.95 0.0
12 01:35 S 8 10.00 Fair CLR 73.4 68 83% 29.96 0.0
12 01:15 E 6 10.00 Fair CLR 73.4 68 83% 29.96 0.0
12 00:55 N 5 10.00 Fair CLR 73.4 68 83% 29.97 0.0
12 00:35 NE 6 10.00 Fair CLR 77 68 74% 79 29.97 0.0
12 00:15 S 6 10.00 Fair CLR 77 68 74% 79 29.97 0.0
11 23:55 E 5 10.00 Fair CLR 77 68 74% 79 29.96 0.0
11 23:35 S 3 10.00 Fair CLR 78.8 68 70% 81 29.96 0.0
11 23:15 S 3 10.00 Fair CLR 78.8 68 70% 81 29.95 0.0
11 22:55 S 5 10.00 Fair CLR 78.8 68 70% 81 29.95 0.0
11 22:35 S 6 10.00 Fair CLR 80.6 68 66% 83 29.95 0.0
11 22:15 S 6 10.00 Fair CLR 80.6 68 66% 83 29.94 0.0
11 21:55 S 3 10.00 Fair CLR 82.4 68 62% 85 29.94 0.0
11 21:35 SE 5 10.00 Fair CLR 84.2 68 58% 87 29.92 0.0
11 21:15 S 9 10.00 Fair CLR 86 66.2 52% 88 29.92 0.0
11 20:55 S 10 10.00 Partly Cloudy SCT120 89.6 66.2 46% 92 29.91 0.0
11 19:55 SW 5 10.00 Partly Cloudy SCT120 98.6 59 27% 98 29.89 0.0
11 18:50 SW 8 10.00 Partly Cloudy SCT120 102.2 55.4 21% 101 29.89 0.0
11 17:50 W 9 10.00 Partly Cloudy SCT120 104 57.2 21% 104 29.89 0.0
11 16:55 W 6 10.00 Partly Cloudy SCT120 102.2 57.2 23% 102 29.9 0.0
11 15:50 SW 10 10.00 Partly Cloudy SCT120 102.2 60.8 26% 103 29.92 0.0
Date Time (cdt) Wind (mph) Vis. (mi.) Weather Sky Cond. Air Dwpt Max. Min. Relative Humidity Wind Chill (°F) Heat Index (°F) altimeter (in) sea level (mb) 1 hr 3 hr 6 hr
6 hour
Temperature (ºF) Pressure Precipitation (in)